Time,TemperatureF,DewpointF,PressureIn,WindDirection,WindDirectionDegrees,WindSpeedMPH,WindSpeedGustMPH,Humidity,HourlyPrecipIn,Conditions,Clouds,dailyrainin,SoftwareType,DateUTC
2013-06-14 00:00:00,80.6,76.4,29.88,SW,225,0.0,4.0,87,0.00,,,0.00,Wunderground v.1.15,2013-06-14 04:00:00,
2013-06-14 00:10:00,80.4,76.5,29.88,South,176,0.0,4.0,88,0.00,,,0.00,Wunderground v.1.15,2013-06-14 04:10:00,
2013-06-14 00:20:00,80.2,76.3,29.88,West,265,0.0,4.0,88,0.00,,,0.00,Wunderground v.1.15,2013-06-14 04:20:00,
2013-06-14 00:30:00,79.9,76.4,29.89,SSW,200,0.0,4.0,89,0.00,,,0.00,Wunderground v.1.15,2013-06-14 04:30:00,
2013-06-14 00:40:00,79.9,76.4,29.89,WSW,245,0.0,5.0,89,0.00,,,0.00,Wunderground v.1.15,2013-06-14 04:40:00,
2013-06-14 00:50:00,79.7,76.2,29.88,SW,234,0.0,4.0,89,0.00,,,0.00,Wunderground v.1.15,2013-06-14 04:50:00,
2013-06-14 01:00:00,79.6,76.4,29.88,South,175,0.0,4.0,90,0.00,,,0.00,Wunderground v.1.15,2013-06-14 05:00:00,
2013-06-14 01:10:00,79.4,76.2,29.87,SW,234,0.0,4.0,90,0.00,,,0.00,Wunderground v.1.15,2013-06-14 05:10:00,
2013-06-14 01:20:00,79.3,76.4,29.87,ESE,103,0.0,4.0,91,0.00,,,0.00,Wunderground v.1.15,2013-06-14 05:20:00,
2013-06-14 01:30:00,79.3,76.4,29.88,SSE,167,0.0,4.0,91,0.00,,,0.00,Wunderground v.1.15,2013-06-14 05:30:00,
2013-06-14 01:40:00,79.2,76.3,29.87,SW,217,0.0,4.0,91,0.00,,,0.00,Wunderground v.1.15,2013-06-14 05:40:00,
2013-06-14 01:50:00,79.3,76.4,29.87,SW,217,0.0,4.0,91,0.00,,,0.00,Wunderground v.1.15,2013-06-14 05:50:00,
2013-06-14 02:00:00,79.3,76.8,29.86,SW,226,0.0,4.0,92,0.00,,,0.00,Wunderground v.1.15,2013-06-14 06:00:00,
2013-06-14 02:10:00,79.3,76.8,29.86,East,80,0.0,4.0,92,0.00,,,0.00,Wunderground v.1.15,2013-06-14 06:10:00,
2013-06-14 02:20:00,79.2,76.7,29.85,West,263,0.0,4.0,92,0.00,,,0.00,Wunderground v.1.15,2013-06-14 06:20:00,
2013-06-14 02:29:00,79.1,76.6,29.84,SSE,150,0.0,4.0,92,0.00,,,0.00,Wunderground v.1.15,2013-06-14 06:29:00,
2013-06-14 02:40:00,79.1,76.6,29.84,SW,233,1.0,1.0,92,0.00,,,0.00,Wunderground v.1.15,2013-06-14 06:40:00,
2013-06-14 02:50:00,79.1,76.6,29.84,South,189,0.0,4.0,92,0.00,,,0.00,Wunderground v.1.15,2013-06-14 06:50:00,
2013-06-14 02:59:00,79.1,76.6,29.84,South,171,1.0,4.0,92,0.00,,,0.00,Wunderground v.1.15,2013-06-14 06:59:00,
2013-06-14 03:10:00,79.0,76.5,29.83,SSE,159,1.0,1.0,92,0.00,,,0.00,Wunderground v.1.15,2013-06-14 07:10:00,
2013-06-14 03:20:00,79.0,76.8,29.83,South,183,0.0,4.0,93,0.00,,,0.00,Wunderground v.1.15,2013-06-14 07:20:00,
2013-06-14 03:30:00,79.0,76.8,29.83,SW,214,1.0,1.0,93,0.00,,,0.00,Wunderground v.1.15,2013-06-14 07:30:00,
2013-06-14 03:40:00,79.0,76.8,29.82,South,186,0.0,4.0,93,0.00,,,0.00,Wunderground v.1.15,2013-06-14 07:40:00,
2013-06-14 03:50:00,79.0,76.8,29.82,East,96,1.0,1.0,93,0.00,,,0.00,Wunderground v.1.15,2013-06-14 07:50:00,
2013-06-14 04:00:00,79.0,76.8,29.82,South,190,0.0,4.0,93,0.00,,,0.00,Wunderground v.1.15,2013-06-14 08:00:00,
2013-06-14 04:10:00,79.1,76.6,29.81,SE,144,0.0,4.0,92,0.00,,,0.00,Wunderground v.1.15,2013-06-14 08:10:00,
2013-06-14 04:20:00,79.2,76.7,29.81,South,176,1.0,1.0,92,0.00,,,0.00,Wunderground v.1.15,2013-06-14 08:20:00,
2013-06-14 04:30:00,79.1,76.6,29.80,SSE,160,2.0,2.0,92,0.00,,,0.00,Wunderground v.1.15,2013-06-14 08:30:00,
2013-06-14 04:40:00,79.1,76.6,29.81,WSW,257,1.0,1.0,92,0.00,,,0.00,Wunderground v.1.15,2013-06-14 08:40:00,
2013-06-14 04:50:00,79.2,76.7,29.84,SSW,205,1.0,1.0,92,0.00,,,0.00,Wunderground v.1.15,2013-06-14 08:50:00,
2013-06-14 05:00:00,79.4,76.9,29.85,WSW,244,0.0,4.0,92,0.00,,,0.00,Wunderground v.1.15,2013-06-14 09:00:00,
2013-06-14 05:10:00,79.4,76.9,29.85,SE,142,1.0,1.0,92,0.00,,,0.00,Wunderground v.1.15,2013-06-14 09:10:00,
2013-06-14 05:20:00,79.5,77.0,29.85,SW,224,0.0,4.0,92,0.00,,,0.00,Wunderground v.1.15,2013-06-14 09:20:00,
2013-06-14 05:30:00,79.5,76.6,29.85,SSW,201,1.0,1.0,91,0.00,,,0.00,Wunderground v.1.15,2013-06-14 09:30:00,
2013-06-14 05:39:00,79.5,76.6,29.85,SSW,209,1.0,1.0,91,0.00,,,0.00,Wunderground v.1.15,2013-06-14 09:39:00,
2013-06-14 05:50:00,79.5,76.6,29.86,SW,228,0.0,4.0,91,0.00,,,0.00,Wunderground v.1.15,2013-06-14 09:50:00,
2013-06-14 06:00:00,79.6,76.7,29.86,WSW,248,0.0,4.0,91,0.00,,,0.00,Wunderground v.1.15,2013-06-14 10:00:00,
2013-06-14 06:10:00,79.5,76.6,29.85,SSW,192,0.0,4.0,91,0.00,,,0.00,Wunderground v.1.15,2013-06-14 10:10:00,
2013-06-14 06:20:00,79.4,76.5,29.85,WSW,250,0.0,4.0,91,0.00,,,0.00,Wunderground v.1.15,2013-06-14 10:20:00,
2013-06-14 06:30:00,79.4,76.9,29.85,South,170,0.0,4.0,92,0.00,,,0.00,Wunderground v.1.15,2013-06-14 10:30:00,
2013-06-14 06:40:00,79.4,76.9,29.85,SSW,192,0.0,4.0,92,0.00,,,0.00,Wunderground v.1.15,2013-06-14 10:40:00,
2013-06-14 06:50:00,79.4,76.9,29.85,West,270,1.0,1.0,92,0.00,,,0.00,Wunderground v.1.15,2013-06-14 10:50:00,
2013-06-14 07:00:00,79.4,76.9,29.86,South,190,1.0,1.0,92,0.00,,,0.00,Wunderground v.1.15,2013-06-14 11:00:00,
2013-06-14 07:10:00,79.3,76.8,29.86,SW,226,1.0,1.0,92,0.00,,,0.00,Wunderground v.1.15,2013-06-14 11:10:00,
2013-06-14 07:20:00,79.3,76.8,29.85,SSW,193,0.0,6.0,92,0.00,,,0.00,Wunderground v.1.15,2013-06-14 11:20:00,
2013-06-14 07:30:00,79.4,76.9,29.86,SW,220,1.0,1.0,92,0.00,,,0.00,Wunderground v.1.15,2013-06-14 11:30:00,
2013-06-14 07:40:00,79.6,77.1,29.86,South,173,0.0,4.0,92,0.00,,,0.00,Wunderground v.1.15,2013-06-14 11:40:00,
2013-06-14 07:50:00,79.8,76.9,29.86,WSW,250,0.0,4.0,91,0.00,,,0.00,Wunderground v.1.15,2013-06-14 11:50:00,
2013-06-14 08:00:00,80.0,77.1,29.87,West,281,1.0,1.0,91,0.00,,,0.00,Wunderground v.1.15,2013-06-14 12:00:00,
2013-06-14 08:10:00,79.9,77.0,29.87,SSW,209,0.0,4.0,91,0.00,,,0.00,Wunderground v.1.15,2013-06-14 12:10:00,
2013-06-14 08:20:00,80.0,77.1,29.88,SW,227,1.0,1.0,91,0.00,,,0.00,Wunderground v.1.15,2013-06-14 12:20:00,
2013-06-14 08:30:00,80.0,77.1,29.88,SSW,194,1.0,1.0,91,0.00,,,0.00,Wunderground v.1.15,2013-06-14 12:30:00,
2013-06-14 08:40:00,80.2,77.0,29.88,SW,225,1.0,1.0,90,0.00,,,0.00,Wunderground v.1.15,2013-06-14 12:40:00,
2013-06-14 08:50:00,80.4,77.2,29.87,SSW,207,1.0,1.0,90,0.00,,,0.00,Wunderground v.1.15,2013-06-14 12:50:00,
2013-06-14 09:00:00,80.9,77.4,29.87,SSW,198,0.0,5.0,89,0.00,,,0.00,Wunderground v.1.15,2013-06-14 13:00:00,
2013-06-14 09:10:00,81.3,77.4,29.87,SW,232,1.0,1.0,88,0.00,,,0.00,Wunderground v.1.15,2013-06-14 13:10:00,
2013-06-14 09:19:00,81.3,77.4,29.88,SSW,192,0.0,4.0,88,0.00,,,0.00,Wunderground v.1.15,2013-06-14 13:19:00,
2013-06-14 09:30:00,81.5,77.6,29.88,SW,223,0.0,4.0,88,0.00,,,0.00,Wunderground v.1.15,2013-06-14 13:30:00,
2013-06-14 09:40:00,81.6,77.4,29.88,South,185,1.0,1.0,87,0.00,,,0.00,Wunderground v.1.15,2013-06-14 13:40:00,
2013-06-14 09:50:00,82.0,77.7,29.88,WSW,252,0.0,4.0,87,0.00,,,0.00,Wunderground v.1.15,2013-06-14 13:50:00,
2013-06-14 10:00:00,82.4,77.8,29.88,SW,235,0.0,4.0,86,0.00,,,0.00,Wunderground v.1.15,2013-06-14 14:00:00,
2013-06-14 10:10:00,82.7,77.7,29.88,SW,215,0.0,4.0,85,0.00,,,0.00,Wunderground v.1.15,2013-06-14 14:10:00,
2013-06-14 10:20:00,82.7,78.1,29.88,West,274,0.0,4.0,86,0.00,,,0.00,Wunderground v.1.15,2013-06-14 14:20:00,
2013-06-14 10:30:00,82.9,78.3,29.88,WSW,255,0.0,4.0,86,0.00,,,0.00,Wunderground v.1.15,2013-06-14 14:30:00,
2013-06-14 10:40:00,83.5,78.5,29.87,West,262,0.0,4.0,85,0.00,,,0.00,Wunderground v.1.15,2013-06-14 14:40:00,
2013-06-14 10:50:00,83.4,78.1,29.87,West,265,0.0,4.0,84,0.00,,,0.00,Wunderground v.1.15,2013-06-14 14:50:00,
2013-06-14 11:00:00,83.2,78.2,29.87,South,186,0.0,4.0,85,0.00,,,0.00,Wunderground v.1.15,2013-06-14 15:00:00,
2013-06-14 11:10:00,84.2,78.5,29.87,SSW,199,0.0,4.0,83,0.00,,,0.00,Wunderground v.1.15,2013-06-14 15:10:00,
2013-06-14 11:20:00,84.7,78.6,29.87,West,280,0.0,4.0,82,0.00,,,0.00,Wunderground v.1.15,2013-06-14 15:20:00,
2013-06-14 11:30:00,85.5,79.0,29.87,West,273,0.0,4.0,81,0.00,,,0.00,Wunderground v.1.15,2013-06-14 15:30:00,
2013-06-14 11:40:00,86.7,79.0,29.87,South,174,0.0,4.0,78,0.00,,,0.00,Wunderground v.1.15,2013-06-14 15:40:00,
2013-06-14 11:50:00,87.1,79.0,29.87,SSE,164,0.0,4.0,77,0.00,,,0.00,Wunderground v.1.15,2013-06-14 15:50:00,
2013-06-14 12:00:00,87.5,78.6,29.87,SSW,200,0.0,4.0,75,0.00,,,0.00,Wunderground v.1.15,2013-06-14 16:00:00,
2013-06-14 12:10:00,88.1,80.0,29.86,SSW,202,0.0,4.0,77,0.00,,,0.00,Wunderground v.1.15,2013-06-14 16:10:00,
2013-06-14 12:20:00,89.0,78.4,29.87,SW,219,0.0,4.0,71,0.00,,,0.00,Wunderground v.1.15,2013-06-14 16:20:00,
2013-06-14 12:30:00,89.5,78.8,29.86,SSW,212,0.0,4.0,71,0.00,,,0.00,Wunderground v.1.15,2013-06-14 16:30:00,
2013-06-14 12:39:00,89.7,78.2,29.86,SSW,207,1.0,1.0,69,0.00,,,0.00,Wunderground v.1.15,2013-06-14 16:39:00,
2013-06-14 12:50:00,90.1,79.0,29.86,SSW,201,0.0,4.0,70,0.00,,,0.00,Wunderground v.1.15,2013-06-14 16:50:00,
2013-06-14 13:00:00,90.8,79.2,29.85,SSW,203,0.0,4.0,69,0.00,,,0.00,Wunderground v.1.15,2013-06-14 17:00:00,
2013-06-14 13:10:00,90.9,78.4,29.85,South,171,0.0,4.0,67,0.00,,,0.00,Wunderground v.1.15,2013-06-14 17:10:00,
2013-06-14 13:20:00,90.3,79.2,29.85,West,277,0.0,4.0,70,0.00,,,0.00,Wunderground v.1.15,2013-06-14 17:20:00,
2013-06-14 13:30:00,89.9,78.8,29.85,South,178,0.0,4.0,70,0.00,,,0.00,Wunderground v.1.15,2013-06-14 17:30:00,
2013-06-14 13:40:00,89.5,78.0,29.85,SSW,196,0.0,4.0,69,0.00,,,0.00,Wunderground v.1.15,2013-06-14 17:40:00,
2013-06-14 13:50:00,90.1,79.0,29.85,South,183,0.0,4.0,70,0.00,,,0.00,Wunderground v.1.15,2013-06-14 17:50:00,
2013-06-14 14:00:00,89.0,78.8,29.84,SSW,198,1.0,1.0,72,0.00,,,0.00,Wunderground v.1.15,2013-06-14 18:00:00,
2013-06-14 14:10:00,89.6,79.4,29.84,SE,146,0.0,4.0,72,0.00,,,0.00,Wunderground v.1.15,2013-06-14 18:10:00,
2013-06-14 14:20:00,89.7,79.0,29.83,SSE,168,1.0,1.0,71,0.00,,,0.00,Wunderground v.1.15,2013-06-14 18:20:00,
2013-06-14 14:30:00,90.4,78.8,29.82,SSE,150,1.0,1.0,69,0.00,,,0.00,Wunderground v.1.15,2013-06-14 18:30:00,
2013-06-14 14:40:00,90.5,79.4,29.82,South,188,0.0,6.0,70,0.00,,,0.00,Wunderground v.1.15,2013-06-14 18:40:00,
2013-06-14 14:50:00,90.7,79.6,29.82,SSE,166,1.0,1.0,70,0.00,,,0.00,Wunderground v.1.15,2013-06-14 18:50:00,
2013-06-14 14:59:00,90.6,78.1,29.83,South,174,1.0,1.0,67,0.00,,,0.00,Wunderground v.1.15,2013-06-14 18:59:00,
2013-06-14 15:10:00,90.8,78.3,29.83,West,270,1.0,1.0,67,0.00,,,0.00,Wunderground v.1.15,2013-06-14 19:10:00,
2013-06-14 15:20:00,91.1,79.5,29.83,SSW,202,1.0,1.0,69,0.00,,,0.00,Wunderground v.1.15,2013-06-14 19:20:00,
2013-06-14 15:30:00,91.1,79.5,29.83,SSW,192,0.0,6.0,69,0.00,,,0.00,Wunderground v.1.15,2013-06-14 19:30:00,
2013-06-14 15:40:00,90.4,79.3,29.82,ESE,121,1.0,1.0,70,0.00,,,0.00,Wunderground v.1.15,2013-06-14 19:40:00,
2013-06-14 15:50:00,90.1,79.4,29.82,ESE,105,1.0,1.0,71,0.00,,,0.00,Wunderground v.1.15,2013-06-14 19:50:00,
2013-06-14 16:00:00,89.2,79.4,29.80,SE,130,1.0,1.0,73,0.00,,,0.00,Wunderground v.1.15,2013-06-14 20:00:00,
2013-06-14 16:10:00,88.6,78.8,29.79,SSW,213,1.0,5.0,73,0.00,,,0.00,Wunderground v.1.15,2013-06-14 20:10:00,
2013-06-14 16:19:00,87.9,78.6,29.79,South,189,1.0,1.0,74,0.00,,,0.00,Wunderground v.1.15,2013-06-14 20:19:00,
2013-06-14 16:30:00,87.3,79.6,29.80,WSW,242,1.0,5.0,78,0.61,,,0.02,Wunderground v.1.15,2013-06-14 20:30:00,
2013-06-14 16:40:00,81.2,76.3,29.86,NNE,30,1.0,1.0,85,1.57,,,0.23,Wunderground v.1.15,2013-06-14 20:40:00,